Regional Weather Roundup
Issued by NWS Charleston, SC

Current Version | Previous Version | Graphics & Text | Print | Product List | Glossary On
Versions: 1 2 3 4 5 6 7 8 9 10 11 12 13 14 15 16 17 18 19 20 21 22 23 24 25 26 27 28 29 30 31 32 33 34 35 36 37 38 39 40 41 42 43 44 45 46 47 48 49 50
000 ASUS42 KCHS 290110 RWRCHS REGIONAL WEATHER ROUNDUP NATIONAL WEATHER SERVICE CHARLESTON SC 800 PM EST FRI NOV 28 2014 NOTE: "FAIR" INDICATES FEW OR NO CLOUDS BELOW 12,000 FEET WITH NO SIGNIFICANT WEATHER AND/OR OBSTRUCTIONS TO VISIBILITY. NOT ALL STATIONS ARE QUALITY CONTROLLED BY THE NATIONAL WEATHER SERVICE. USE DATA WITH CAUTION...ESPECIALLY DEWPOINT OBSERVATIONS. SCZ027-030-031-034>040-042>050-290200- ...SOUTHEAST SOUTH CAROLINA... CITY SKY/WX TMP DP RH WIND PRES REMARKS N CHARLESTON CLEAR 38 30 73 CALM 30.35R WATERFRONT PRK N/A 45 N/A N/A N3 N/A MOUNT PLEASANT FAIR 36 34 93 CALM 30.35R JOHNS ISLAND CLEAR 37 36 93 CALM 30.35S PINOPOLIS N/A 46 27 46 W5 30.26F MONCKS CORNER FAIR 36 36 100 CALM 30.35R SUMMERVILLE FAIR 34 32 93 CALM 30.36R BEAUFORT MCAS CLEAR 39 33 79 CALM 30.34S BEAUFORT ARPT FAIR 37 37 100 CALM 30.33S HILTON HEAD IS CLEAR 36 34 93 CALM 30.35S WALTERBORO CLEAR 34 34 100 CALM 30.35S ALLENDALE FAIR 36 32 87 CALM 30.34R ...SOUTHERN MIDLANDS AND PEE DEE... CITY SKY/WX TMP DP RH WIND PRES REMARKS GEORGETOWN NOT AVBL KINGSTREE NOT AVBL ORANGEBURG CLEAR 35 29 78 CALM 30.34R BARNWELL N/A 34 32 93 CALM 30.34S AIKEN FAIR 34 30 86 CALM 30.35F MANNING NOT AVBL COLUMBIA CLEAR 35 28 75 CALM 30.34R SUMTER CLEAR 38 28 69 CALM 30.32S FLORENCE CLEAR 36 27 69 CALM 30.34R MYRTLE BEACH NOT AVBL N MYRTLE BEACH CLEAR 34 29 82 CALM 30.34R $$ GAZ063-065-086>088-099>101-113>116-118-119-134>141-150-290200- ...SOUTHEAST GEORGIA... CITY SKY/WX TMP DP RH WIND PRES REMARKS SAVANNAH ARPT CLEAR 42 32 67 CALM 30.34R HUNTER AAF CLEAR 38 34 87 CALM 30.32R FORT STEWART CLEAR 38 34 85 CALM 30.33R STATESBORO NOT AVBL SYLVANIA CLEAR 38 36 91 CALM 30.35R CLAXTON NOT AVBL ...CSRA...CENTRAL AND FAR SOUTHEAST GEORGIA... CITY SKY/WX TMP DP RH WIND PRES REMARKS THOMSON CLEAR 36 34 92 CALM 30.36R AUGUSTA-BUSH CLEAR 33 27 78 CALM 30.33S AUGUSTA-DANIEL CLEAR 44 23 43 E3 30.33R SWAINSBORO FAIR 37 37 100 CALM 30.34R VIDALIA CLEAR 39 34 81 CALM 30.33S HAZLEHURST FAIR 39 38 95 CALM 30.32F ALMA CLEAR 36 34 92 CALM 30.33R WAYCROSS CLEAR 42 39 87 CALM 30.34R JESUP FAIR 39 37 93 CALM 30.34S BAXLEY FAIR 39 37 93 CALM 30.33R BRUNSWICK CLEAR 37 36 93 CALM 30.35R SAINT SIMONS CLEAR 40 34 79 CALM 30.34S $$ SCZ027-028-034-036>038-045-046-048>050-GAZ119-141-290200- ...LAKE AND SUPPLEMENTAL COASTAL OBSERVATIONS... STATION/POSITION TIME TEMP WIND PRES WAVE SWELL AIR SEA DIR/SP/G HT/PER HT/PER/DIR (UTC) (F) (DEG/KT/KT) (MB) (FT/S) (FT/S/D) UPR LAKE MARION NOT AVBL WINYAH BAY 0000 38 300/ 2 1027.0S LAKE MURRAY 0000 42 CALM / 1 1026.4R ACE BASIN NERRS 0000 39 CALM 1027.0S FORT PULASKI 0100 45 140/ 3/ 3 1027.6R SAPELO ISLAND 0000 38 70/ 2 1027.0S $$ ANZ835-935-AMZ111-154-330-350-352-354-370-450-454-472-290200- ...C-MAN AND BUOY OBSERVATIONS... STATION/POSITION TIME TEMP WIND PRES WAVE SWELL AIR SEA DIR/SP/G HT/PER HT/PER/DIR (UTC) (F) (DEG/KT/KT) (MB) (FT/S) (FT/S/D) BUOY 41004 0100 49 72 340/ 8/ 12 1027.1R 4/ 9 3/ 9 BUOY 41008 0100 49 62 40/ 6/ 8 1027.2F 3/ 6 3/ 70/ 6 FOLLY BEACH CMAN 0000 43 290/ 3/ 4 1027.9R CAPERS NEARSHORE 0000 47 320/ 6/ 8 N/A FRIPP NEARSHORE NOT AVBL STATION/POSITION TIME TEMP WIND PRES WAVE SWELL AIR SEA DIR/SP/G HT/PER HT/PER/DIR (UTC) (F) (DEG/KT/KT) (MB) (FT/S) (FT/S/D) 5E ST. MARYS GA 0100 60 N/A 3/ 7 FRYING PAN BUOY 0100 47 67 330/ 10/ 14 1027.7R 3/ 6 3/ 60/ 6 BUOY 41025 0100 42 330/ 10/ 16 1026.5R 4/10 3/ 40/10 CAPE LOOKOUT NC 0000 43 360/ 7/ 8 1026.4R BUOY 41002 0014 59 72 350/ 16/ 21 1024.0R 8/ 7 5/360/ 8 BUOY 41010 0100 65 77 10/ 16/ 21 1023.3S 7/ 8 5/ 40/ 8 ST AUGUSTINE FL 0100 48 300/ 7/ 9 1027.2R $$

USA.gov is the U.S. government's official web portal to all federal, state and local government web resources and services.